Weather in Chibit

Russia / Altai Republic     50°19′04″N   87°30′22″E
temp.,
°C
wind,
m/s
gust,
m/s
humid.,
%
clouds,
%
prec.,
mm/h
press.,
hPa
HPBL,
m
30 november, tue
tue3001:00−13sse337354 0.0 103725
04:00−13s337262 0.0 103721
07:00−13sse33695 0.0 103621
10:00−12s336923 0.0 103526
13:00−5s116547 0.0 1028101
16:00−8s228327 0.0 103011
19:00−14s336738 0.0 103718
22:00−14sse336589 0.0 103724
1 december, wed
wed101:00−14s336286 0.0 103823
04:00−13sse3362100 0.0 103725
07:00−13s3361100 0.0 103723
10:00−12sse336227 0.0 103727
13:00−5se12600 0.0 103186
16:00−9sse22721 0.0 103319
19:00−14sse43520 0.0 103923
22:00−14sse44490 0.0 103929
2 december, thu
thu201:00−14sse44480 0.0 103831
04:00−14sse44490 0.0 103630
07:00−14sse44480 0.0 103532
10:00−12sse34521 0.0 103442
13:00−5sse23615 0.0 102690
16:00−8sse32675 0.0 102821
19:00−13sse43475 0.0 103424
22:00−14sse43464 0.0 103424
3 december, fri
fri301:00−14sse43451 0.0 103424
04:00−14sse44450 0.0 103426
07:00−13sse44460 0.0 103227
10:00−11sse44500 0.0 103045
13:00−4sse34605 0.0 102293
16:00−6sse3463100 0.0 102446
19:00−10s445539 0.0 102642
22:00−8s4558100 0.0 102449
4 december, sat
sat401:00−7s4559100 0.1 102249
04:00−8s4469100 0.0 102251
07:00−7w2394100 0.3 102276
10:00−7wnw3496100 1.9 1024191
13:00−6w239194 4.4 1026359
16:00−7w239791 0.1 102897
19:00−8wsw339695 0.6 1031104
22:00−10sw2396100 0.4 103560